N7DTY Weather Reports


time (UTC)temp
F
wind
direction
speed
knots
gust
knots
rain 1hr
in
rain 24hr
in
rain mn
in
humidity
%
barometer
mb
20260902151504 63 127 1.7 5.2 0.00 0.00 0.00 71 1005.0
20260902150002 63 180 1.7 7.8 0.00 0.00 0.00 70 1005.1
20260902144600 63 170 3.5 10.4 0.00 0.00 0.00 72 1005.4
20260902143055 63 210 2.6 12.2 0.00 0.00 0.00 72 1005.4
20260902141555 62 198 1.7 14.8 0.00 0.00 0.00 73 1005.5
20260902140049 62 120 1.7 8.7 0.00 0.00 0.00 73 1005.6
20260902134549 62 184 1.7 10.4 0.00 0.00 0.00 73 1005.8
20260902133055 62 186 2.6 7.8 0.00 0.00 0.00 74 1005.8
20260902131548 62 183 2.6 10.4 0.00 0.00 0.00 74 1005.8
20260902130042 62 167 3.5 10.4 0.00 0.00 0.00 74 1005.7
20260902124541 62 173 2.6 8.7 0.00 0.00 0.00 74 1005.6
20260902123046 62 205 2.6 8.7 0.00 0.00 0.00 73 1005.7
20260902121538 62 167 2.6 12.2 0.00 0.00 0.00 72 1005.8
20260902120042 62 153 0.9 8.7 0.00 0.00 0.00 73 1006.0
20260902114548 62 180 2.6 10.4 0.00 0.00 0.00 72 1006.1
20260902113038 62 178 1.7 5.2 0.00 0.00 0.00 73 1006.3
20260902111541 62 223 0.0 4.3 0.00 0.00 0.00 72 1006.3
20260902110053 62 221 0.9 6.1 0.00 0.00 0.00 72 1006.4
20260902104530 63 195 0.0 7.0 0.00 0.00 0.00 71 1006.5
20260902103029 63 217 0.9 7.0 0.00 0.00 0.00 70 1006.6
20260902101527 63 171 1.7 5.2 0.00 0.00 0.00 71 1006.7
20260902100026 63 167 1.7 8.7 0.00 0.00 0.00 72 1006.8
20260902094526 63 258 1.7 7.0 0.00 0.00 0.00 71 1007.0
20260902093021 63 191 1.7 8.7 0.00 0.00 0.00 72 1007.1
20260902091520 62 188 0.9 8.7 0.00 0.00 0.00 74 1007.2
20260902090017 62 230 0.9 8.7 0.00 0.00 0.00 75 1007.5
20260902084514 63 167 2.6 9.6 0.00 0.00 0.00 75 1007.5
20260902083016 62 304 1.7 9.6 0.00 0.00 0.00 76 1007.6
20260902081512 63 272 3.5 9.6 0.00 0.00 0.00 76 1007.8
20260902080011 63 173 3.5 12.2 0.00 0.00 0.00 76 1007.7
20260902074511 63 136 5.2 9.6 0.00 0.00 0.00 77 1007.7
20260902073008 62 164 2.6 7.8 0.00 0.00 0.00 79 1007.8
20260902071505 63 138 3.5 8.7 0.00 0.00 0.00 79 1007.8
20260902070003 63 201 2.6 6.1 0.00 0.00 0.00 77 1007.9
20260902064502 63 182 4.3 12.2 0.00 0.00 0.00 76 1008.0
20260902063003 63 198 1.7 8.7 0.00 0.00 0.00 76 1008.0
20260902061613 63 189 2.6 8.7 0.00 0.00 0.00 76 1008.0
20260902060059 63 163 3.5 7.0 0.00 0.00 0.00 77 1008.2
20260902054558 63 175 2.6 7.8 0.00 0.00 0.00 77 1008.3
20260902053058 63 151 0.9 7.8 0.00 0.00 0.00 77 1008.3
20260902051600 63 187 1.7 6.1 0.00 0.00 0.00 79 1008.4
20260902050057 62 194 1.7 7.0 0.00 0.00 0.00 82 1008.5
20260902044557 62 171 0.9 2.6 0.00 0.00 0.00 84 1008.5
20260902043103 62 162 0.0 0.9 0.00 0.00 0.00 82 1008.5
20260902041555 63 162 0.0 2.6 0.00 0.00 0.00 80 1008.7
20260902040100 63 193 0.0 4.3 0.00 0.00 0.00 79 1008.6
20260902034554 63 177 0.0 3.5 0.00 0.00 0.00 78 1008.6
20260902033105 63 150 0.0 4.3 0.00 0.00 0.00 77 1008.4
20260902031553 63 170 1.7 5.2 0.00 0.00 0.00 76 1008.4
20260902030053 63 163 0.9 4.3 0.00 0.00 0.00 75 1008.4
20260902024553 63 165 0.9 4.3 0.00 0.00 0.00 75 1008.4
20260902023152 63 153 0.0 3.5 0.00 0.00 0.00 75 1008.3
20260902021557 63 147 1.7 7.0 0.00 0.00 0.00 75 1008.4
20260902020051 64 153 0.0 4.3 0.00 0.00 0.00 74 1008.4
20260902014550 64 175 0.9 6.1 0.00 0.00 0.00 73 1008.4
20260902013050 63 163 1.7 7.0 0.00 0.00 0.00 75 1008.3
20260902011549 63 177 0.9 6.1 0.00 0.00 0.00 77 1008.4
20260902010051 64 178 1.7 5.2 0.00 0.00 0.00 76 1008.4
20260902004548 64 165 0.9 4.3 0.00 0.00 0.00 76 1008.4
20260902003047 64 171 0.0 1.7 0.00 0.00 0.00 77 1008.3
20260902001547 64 180 0.9 5.2 0.00 0.00 0.00 75 1008.2
20260902000052 64 192 1.7 4.3 0.00 0.00 0.00 77 1008.2
20260901234553 65 175 2.6 7.8 0.00 0.00 0.00 75 1008.3
20260901233045 65 162 1.7 6.1 0.00 0.00 0.00 76 1008.2
20260901231544 65 182 2.6 6.1 0.00 0.00 0.00 76 1008.2
20260901230046 66 182 2.6 8.7 0.00 0.00 0.00 74 1008.1
20260901224542 67 186 5.2 10.4 0.00 0.00 0.00 72 1008.2
20260901223039 67 121 1.7 8.7 0.00 0.00 0.00 74 1008.2
20260901221603 66 127 5.2 11.3 0.00 0.00 0.00 75 1008.2
20260901220039 66 155 2.6 7.8 0.00 0.00 0.00 74 1008.4
20260901214538 65 177 2.6 7.8 0.00 0.00 0.00 77 1008.6
20260901213058 65 200 2.6 13.9 0.00 0.00 0.00 78 1008.7
20260901211544 64 168 2.6 7.0 0.00 0.00 0.00 79 1008.7
20260901210039 64 192 3.5 9.6 0.00 0.00 0.00 78 1008.9
20260901204536 65 177 1.7 7.8 0.00 0.00 0.00 78 1008.9
20260901203042 64 229 2.6 7.0 0.00 0.00 0.00 79 1008.9
20260901201533 64 190 3.5 8.7 0.00 0.00 0.00 78 1008.9
20260901200041 66 128 2.6 7.0 0.00 0.00 0.00 76 1008.7
20260901194532 66 156 1.7 8.7 0.00 0.00 0.00 73 1008.7
20260901193035 65 186 4.3 12.2 0.00 0.00 0.00 77 1008.8
20260901191530 67 192 1.7 12.2 0.00 0.00 0.00 75 1008.7
20260901190029 66 206 1.7 7.0 0.00 0.00 0.00 75 1008.7
20260901184533 66 164 0.9 7.0 0.00 0.00 0.00 75 1008.9
20260901183025 64 234 0.9 7.8 0.00 0.00 0.00 79 1009.0
20260901181524 64 188 1.7 8.7 0.00 0.00 0.00 76 1009.0
20260901180023 63 153 2.6 9.6 0.00 0.00 0.00 79 1009.0
20260901174520 63 198 2.6 7.8 0.00 0.00 0.00 77 1009.0
20260901173017 62 289 0.9 6.1 0.00 0.00 0.00 81 1008.9
20260901171518 61 167 0.9 7.0 0.00 0.00 0.00 83 1009.0
20260901170010 61 194 1.7 6.1 0.00 0.00 0.00 83 1009.0
20260901164510 60 155 1.7 4.3 0.00 0.00 0.00 84 1008.9
20260901163003 60 192 2.6 10.4 0.00 0.00 0.00 85 1008.9
20260901161600 59 177 3.5 7.8 0.00 0.00 0.00 85 1009.0
20260901161501 59 180 2.6 8.7 0.00 0.00 0.00 86 1009.0
20260901160105 59 192 2.6 9.6 0.00 0.00 0.00 87 1008.9
20260901154557 58 242 0.9 5.2 0.00 0.00 0.00 91 1009.0
20260901153103 57 161 0.0 0.0 0.00 0.00 0.00 93 1009.0